Content
SEND FEEDBACK

Daily
Averages
Monthly
Summary
United States of America

WILMINGTON, NORTH CAROLINA


Home > North America > United States > North Carolina
Elevation: 72 feet     Latitude: 34 16N     Longitude: 077 54W

WEATHER
 
SELECT A DAY
Number of Records: 208,780;   Date Range: 1/1/95 - 7/26/14
 
SHARE

PRINT THIS DATA

[ ← Previous Day ]
WEATHER ALMANAC - SEPTEMBER 5, 2013
[ Next Day → ]
[ °C ]   °F
Weather ElementAverageHighLow
Temperature77.8 °F87.8 °F (2:15 pm)71.6 °F (4:14 am)
Dewpoint73 °F75.9 °F (8:53 am)70 °F (9:53 pm)
Humidity86 %100 % (4:14 am)63 % (12:53 pm)
Barometer30.05 in30.09 in (10:53 am)30.01 in (4:53 pm)
Wind Speed1.7 mph9.2 mph (2:53 pm)
Weather ElementAverage
Visibility5.1 mi
Wind DirectionNE (47.4 °)

Weather ElementTotal
Precipitation---
Cooling Degree Days14.7 (Base 65)
Growing Degree Days29.7 (Base 50)
Averaged from 46 records on September 5, 2013
WEATHER CONDITIONS BREAKOUT
WIND DIRECTION BREAKOUT
WEATHER BY HOUR - SEPTEMBER 5, 2013
[ °C ]   °F
Local TimeTemperatureDewpointHumidityBarometerVisibilityWind DirectionWind SpeedGust SpeedPrecipitationEventsConditions
1:53 AM73.9 °F73.0 °F97 %30.06 in7.0 miCalmClear
2:15 AM73.4 °F71.6 °F94 %30.06 in4.0 miCalmScattered Clouds
2:19 AM73.4 °F71.6 °F94 %30.06 in2.5 miCalmMostly Cloudy
2:35 AM73.4 °F71.6 °F94 %30.06 in3.0 miCalmMostly Cloudy
2:53 AM73.9 °F72.0 °F93 %30.05 in5.0 miCalmMostly Cloudy
3:00 AM73.4 °F71.6 °F94 %30.05 in6.0 miCalmScattered Clouds
3:18 AM73.4 °F71.6 °F94 %30.05 in2.0 miCalmPartly Cloudy
3:32 AM73.4 °F71.6 °F94 %30.05 in5.0 miCalmPartly Cloudy
3:53 AM73.0 °F71.1 °F93 %30.04 in2.5 miCalmPartly Cloudy
3:58 AM73.4 °F71.6 °F94 %30.04 in1.2 miCalmScattered Clouds
4:06 AM73.4 °F71.6 °F94 %30.04 in1.2 miCalmMostly Cloudy
4:14 AM71.6 °F71.6 °F100 %30.04 in0.2 miNE (40°)3.5 mphFogFog
4:41 AM73.4 °F71.6 °F94 %30.04 in0.2 miCalmFogFog
4:47 AM73.4 °F71.6 °F94 %30.04 in1.0 miCalmMist
4:48 AM73.0 °F72.0 °F96 %30.04 in1.2 miCalmOvercast
5:06 AM73.4 °F71.6 °F94 %30.04 in0.5 miCalmFogFog
5:24 AM71.6 °F71.6 °F100 %30.04 in0.2 miCalmFogFog
5:38 AM73.4 °F71.6 °F94 %30.04 in0.2 miCalmFogFog
5:53 AM73.0 °F72.0 °F96 %30.04 in0.2 miCalmFogFog
6:53 AM73.0 °F73.0 °F100 %30.06 in0.2 miCalmFogFog
7:39 AM73.4 °F73.4 °F100 %30.07 in0.2 miCalmFogFog
7:53 AM73.9 °F73.0 °F97 %30.07 in0.2 miCalmFogFog
8:20 AM75.2 °F75.2 °F100 %30.07 in1.0 miCalmMist
8:24 AM75.2 °F75.2 °F100 %30.07 in2.0 miCalmMostly Cloudy
8:29 AM77.0 °F75.2 °F94 %30.07 in3.0 miCalmScattered Clouds
8:53 AM79.0 °F75.9 °F90 %30.07 in5.0 miCalmPartly Cloudy
9:53 AM81.0 °F75.9 °F85 %30.08 in6.0 miCalmHaze
10:53 AM84.0 °F75.9 °F76 %30.09 in6.0 miNNW (330°)4.6 mphHaze
11:41 AM84.2 °F75.2 °F74 %30.08 in8.0 miNNW (340°)6.9 mphMostly Cloudy
11:53 AM84.9 °F75.0 °F72 %30.08 in8.0 miNorth (350°)6.9 mphMostly Cloudy
12:05 PM86.0 °F75.2 °F70 %30.08 in9.0 miNorth (10°)4.6 mphPartly Cloudy
12:29 PM86.0 °F73.4 °F66 %30.08 in10.0 miEast (90°)3.5 mphMostly Cloudy
12:53 PM87.1 °F73.0 °F63 %30.07 in10.0 miCalmPartly Cloudy
1:53 PM86.0 °F75.0 °F70 %30.06 in9.0 miESE (110°)5.8 mphMostly Cloudy
2:15 PM87.8 °F75.2 °F66 %30.05 in9.0 miVariable5.8 mphMostly Cloudy
2:53 PM86.0 °F75.0 °F70 %30.03 in9.0 miSSE (160°)9.2 mphMostly Cloudy
3:12 PM84.2 °F73.4 °F70 %30.03 in10.0 miSouth (180°)9.2 mphOvercast
3:53 PM86.0 °F73.9 °F67 %30.02 in10.0 miSouth (180°)4.6 mphClear
4:53 PM86.0 °F73.9 °F67 %30.01 in10.0 miSouth (170°)4.6 mphPartly Cloudy
5:53 PM86.0 °F75.0 °F70 %30.02 in9.0 miESE (120°)4.6 mphMostly Cloudy
6:53 PM82.9 °F75.0 °F77 %30.01 in9.0 miEast (100°)5.8 mphClear
7:53 PM81.0 °F72.0 °F74 %30.01 in10.0 miCalmPartly Cloudy
8:53 PM79.0 °F71.1 °F77 %30.03 in10.0 miCalmClear
9:53 PM75.9 °F70.0 °F82 %30.04 in10.0 miCalmClear
10:53 PM73.9 °F70.0 °F87 %30.06 in10.0 miCalmClear
11:53 PM73.9 °F71.1 °F91 %30.06 in8.0 miCalmClear
Hourly data recorded from KILM, located miles away from Wilmington, North Carolina







STORIES FROM OUR PARTNERS